www.pogodaiklimat.ru

Погода и климат >> Архив погоды >> Россия >> Ненецкий АО >> Хорей-Вер


ПОГОДА в Хорей-Вере

  • Прогноз погоды в Хорей-Вере
  • Монитор погоды в Хорей-Вере

АРХИВ ПОГОДЫ в Хорей-Вере

Время (UTC), дата Ветер
(напр.,м/с)
 
Видим.   Явления Облачность Т
(С)
Тd
(С)
f
(%)
Тe
(С)
Тes
(С)
Комфортность P
(гПа)
Po
(гПа)
Тmin
(С)
Tmax
(С)
R
(мм)
R24
(мм)
S
(см)
09 17.04 З 12-15
{16}
500 м снег {метель} 10/0
[As trans]
-8.3 -10.0 88 -19 -19 1023.8 1014.4
12 17.04 З 9-14
{16}
2000 м снег {метель} 10/0 300 м
[As op]
-5.3 -6.5 91 -15 -15 1021.0 1011.8
15 17.04 З 7-10
{14}
20 км позёмок {снег} 10/10 300 м
[Cb cap]
-2.6 -3.5 94 -11 -11 1018.5 1009.4 -2.6 0.6
18 17.04 СЗ 7-11
{12}
10 км слаб. ливневой снег 10/10 300 м
[Cb cap]
-1.4 -2.4 93 -9 -9 1016.6 1007.6
21 17.04 СЗ 6
{11}
20 км {ливн. осадки} 10/9 300 м
[Frnb As op]
-1.4 -2.3 94 -9 -9 1015.4 1006.4
00 18.04 СЗ 8-13
{13}
20 км {ливн. осадки} 10/10 300 м
[Sc]
-0.7 -1.6 94 -9 -9 1013.4 1004.4
03 18.04 СЗ 5
{13}
20 км в посл. час ливневой снег 10/10 300 м
[Cb cap]
-0.3 -1.0 95 -7 -7 1012.9 1003.9 -2.6 0.5 36
06 18.04 С 7 20 км {ливн. осадки} 10/10 300 м
[Cb cap]
+0.1 -0.5 96 -7 -7 1013.8 1004.8
09 18.04 С 7-10
{10}
20 км 10/10 300 м
[Sc]
+0.4 -1.6 86 -7 -7 1015.8 1006.9
12 18.04 СЗ 6-10
{11}
20 км 10/10 300 м
[Sc]
+0.8 -1.0 88 -6 -6 1016.8 1007.8
15 18.04 СЗ 6 20 км 10/10 300 м
[Sc]
-0.5 -1.8 91 -7 -7 1016.3 1007.3 +0.8 0.0
18 18.04 З 8-12
{14}
4000 м слаб. снег {метель} 10/0 300 м
[As op]
-0.5 -1.3 94 -8 -8 1014.9 1005.9
21 18.04 СЗ 6
{13}
н/о н/о 0.0 -0.6 96 -7 -7 1014.1 1005.1
00 19.04 С 5 н/о н/о -1.5 -2.8 91 -8 -8 1014.7 1005.7
03 19.04 С 6
{12}
20 км позёмок 10/10 300 м
[Cb cap]
-2.6 -4.4 87 -10 -10 1015.7 1006.6 -2.6 0.3 37
06 19.04 С 5 20 км {метель} 10/10 300 м
[Sc]
-2.5 -4.0 89 -9 -9 1017.1 1008.0 -2.7
09 19.04 СЗ 5 20 км {ливн. осадки} 10/10 300 м
[Cb cap]
-1.3 -4.4 79 -8 -8 1018.3 1009.2
12 19.04 СЗ 4 20 км в посл. час ливневой снег 10/10 300 м
[Cb cap]
+0.2 -1.5 88 -5 -5 1018.6 1009.6
15 19.04 СЗ 5 4000 м слаб. ливневой снег 10/10 200 м
[Cb cap]
+0.1 -0.5 96 -6 -6 1018.5 1009.5 +0.4 0.2
18 19.04 СЗ 4 20 км {ливн. осадки} 10/10 300 м
[Cb cap]
+0.2 -0.1 98 -5 -5 1018.4 1009.4
21 19.04 СЗ 4 н/о н/о -0.4 -0.9 96 -6 -6 1018.7 1009.7
00 20.04 СЗ 5 20 км 10/10 200 м
[St]
+0.2 -0.2 97 -6 -6 1018.5 1009.5
03 20.04 СЗ 5
{11}
4000 м в посл. час туман 10/10 100 м
[St]
+0.3 -0.1 97 -6 -6 1018.5 1009.5 -0.4 0.2 35
06 20.04 СЗ 6
{10}
20 км {туман} 10/5 300 м
[St As op]
+0.8 -0.6 90 -6 -6 1018.4 1009.4
09 20.04 СЗ 6
{11}
20 км 10/10 300 м
[St]
+0.8 -0.2 93 -6 -6 1018.6 1009.6
12 20.04 СЗ 5 20 км 9/9 300 м
[Sc diur, vesp]
+1.2 -0.9 86 -5 -4 1018.3 1009.3
15 20.04 З 6
{10}
20 км 10/10 600 м
[Sc]
+0.7 -1.0 88 -6 -6 1016.8 1007.8 +1.5
18 20.04 З 8
{13}
4000 м слаб. ливневой снег 10/10 300 м
[Cb cap]
-0.1 -0.7 96 -8 -8 1013.7 1004.8
21 20.04 З 8-13
{14}
4000 м слаб. ливневой снег {метель} 10/10 300 м
[Cb cap]
0.0 -0.5 96 -8 -8 1010.1 1001.2
00 21.04 СЗ 6-11
{14}
4000 м слаб. морось 10/10 300 м
[Sc diur, vesp]
+0.4 -0.1 96 -6 -6 1008.5 999.6
03 21.04 СЗ 5
{11}
4000 м слаб. дождь {морось} 10/6 300 м
[Frnb As op]
+0.6 +0.2 97 -6 -5 1008.7 999.8 -0.2 2 32
06 21.04 СЗ 5 20 км {дождь, морось} 10/10 300 м
[Cb cap]
+1.1 0.0 92 -5 -5 1009.6 1000.7
09 21.04 СЗ 6
{11}
20 км в посл. час ливневой снег 10/10 300 м
[Cb cap]
+1.1 -0.1 92 -5 -5 1010.8 1001.9
12 21.04 З 7
{10}
20 км {ливн. осадки, морось} 10/10 300 м
[Cb cap]
+1.0 -0.6 89 -6 -6 1011.2 1002.3
15 21.04 З 7
{10}
4000 м слаб. морось 10/10 200 м
[St]
+0.6 +0.3 98 -7 -7 1010.2 1001.3 +1.2 0.4
18 21.04 З 10-12
{13}
20 км {ливн. осадки, морось} 10/10 300 м
[St]
+1.6 +0.7 94 -6 -6 1007.6 998.7
21 21.04 З 8-12
{13}
4000 м морось 10/10 300 м
[St]
+1.7 +0.5 92 -5 -5 1005.6 996.8
00 22.04 З 7-10
{14}
20 км {морось} 10/10 300 м
[St]
+1.2 +0.3 94 -6 -6 1005.2 996.3
03 22.04 З 5
{11}
20 км в посл. час ливневой дождь 10/10 300 м
[Cb cap]
+0.9 +0.2 95 -5 -5 1003.6 994.8 +0.6 1 30
06 22.04 З 6
{12}
20 км {ливн. осадки} 10/10 300 м
[Cb cap]
+1.2 +0.2 93 -5 -5 1002.8 994.0
09 22.04 З 6
{10}
20 км 10/10 300 м
[Cb cap]
+1.0 +0.1 94 -6 -6 1002.0 993.2
12 22.04 З 8-11
{12}
н/о н/о +1.2 +0.4 94 -6 -6 1001.9 993.1
15 22.04 З 9
{14}
20 км 10/10 300 м
[Cb cap]
+1.6 -0.1 88 -6 -6 1001.8 993.0 +1.6
18 22.04 С 9-13
{15}
20 км в посл. час ливневой снег 10/10 300 м
[Cb cap]
-0.3 -1.8 90 -8 -8 1003.4 994.5
21 22.04 С 7-11
{16}
20 км {ливн. осадки} 10/10 300 м
[Cb cap]
-2.8 -5.8 80 -11 -11 1007.3 998.3
00 23.04 С 7
{14}
20 км {ливн. осадки} 10/10 300 м
[Sc]
-4.2 -7.9 75 -12 -12 1010.9 1001.8
03 23.04 С 6 20 км 10/10 300 м
[Sc]
-4.3 -6.6 84 -12 -12 1013.5 1004.4 -5.2 0.0 22
06 23.04 В 2 10 км слаб. ливневой снег 10/10 300 м
[Cb cap]
-4.4 -8.8 71 -8 -8 1015.7 1006.5
09 23.04 СЗ 3 20 км снежные кристаллы 9/9 600 м
[Sc]
-3.5 -8.3 69 -8 -8 1016.6 1007.4
12 23.04 СЗ 2 20 км {ливн. осадки, снег} 9/8 600 м
[Sc Ac trans]
-3.3 -9.0 65 -7 -7 1016.4 1007.3
15 23.04 ЮЗ 2 20 км 9/8 600 м
[Sc Ac trans]
-3.6 -8.2 70 -7 -7 1015.5 1006.4 -3.1 0.0
18 23.04 Ю 2 20 км 10/10 600 м
[Sc]
-4.3 -7.2 80 -8 -8 1015.0 1005.9
21 23.04 ЮВ 2 н/о н/о -4.6 -7.5 80 -9 -9 1014.2 1005.1
00 24.04 В 3 20 км 10/0
[Ac As]
-5.4 -7.6 84 -11 -11 1013.6 1004.4
03 24.04 В 4 20 км 10/8 600 м
[Sc Ac As]
-4.9 -8.2 78 -11 -11 1013.6 1004.5 -5.4 23
06 24.04 В 5 20 км 9/0
[Ac trans]
-3.7 -8.2 71 -10 -9 1014.2 1005.1

 

Местоположение метеостанции Хорей-Вер (Ненецкий АО, Россия): широта 67.43 долгота 58.02 высота над уровнем моря 72 м.

В архиве по умолчанию представлена погода в Хорей-Вере за последнюю неделю. Архивные данные за месяц целиком и за предыдущие месяцы, начиная с января 2011 года, Вы можете получить, выбрав интересующий диапазон дат из раскрывающегося списка и нажав кнопку "Ввод!".


*Определитесь, кто Вы:
робот инопланетянин человек

Внимание! Время в таблицах - всемирное. Для получения местного времени необходимо прибавить поправку, которая равна 3 ч.

Смотрите также архив погоды в соседних городах и на ближайших метеорологических станциях:

Погода в Харуте (Ненецкий АО, Россия) (92 км)
Погода в Варандее (Ненецкий АО, Россия) (155 км)
Погода в Усинске (Коми, Россия) (158 км)
Погода на Мысе Константиновском (Ненецкий АО, Россия) (163 км)
Погода в Петруни (Коми, Россия) (163 км)
Погода в Усть-Усе (Коми, Россия) (169 км)
Погода в Мутном Материке (Коми, Россия) (207 км)
Погода в Нарьян-Маре (Ненецкий АО, Россия) (214 км)
Погода в Ходоварихе (Ненецкий АО, Россия) (243 км)
Погода в Воркуте (Коми, Россия) (254 км)

Пояснения к столбцам:

Ветер - указаны скорость ветра в м/с - средняя за 10 мин, порывы в срок и между сроками (в фигурных скобках) и направление, откуда дует ветер: С - северный, СВ - северо-восточный, В - восточный, ЮВ - юго-восточный, Ю - южный, ЮЗ - юго-западный, З - западный, СЗ - северо-западный.
Видимость - горизонтальная дальность видимости в метрах или километрах. При видимости от 1 до 10 км при отсутствии осадков обычно наблюдается дымка, при ухудшении видимости до 1 км и менее - туман. В сухую погоду видимость может ухудшаться дымом, пылью или мглою.
Явления - указаны атмосферные явления, наблюдавшиеся в срок или в последний час перед сроком; фигурными скобками обозначены явления, наблюдавшиеся между сроками (за 1-3 часа до срока); квадратными скобками обозначены град или гололедные отложения с указанием их диаметра в мм.
Облачность - указаны через наклонную черту общая и нижняя облачность в баллах и высота нижней границы облаков в метрах; квадратными скобками обозначены формы облаков: Ci - перистые, Cs - перисто-слоистые, Cc - перисто-кучевые, Ac - высококучевые, As - высокослоистые, Sc - слоисто-кучевые, Ns - слоисто-дождевые, Cu - кучевые, Cb - кучево-дождевые. Подробнее классификацию облаков см. в Атласе облаков (PDF).
T - Температура воздуха - температура, измеренная на высоте 2 м над землей.
Td - Температура точки росы - температура, при понижении до которой содержащийся в воздухе водяной пар достигнет насыщения.
f - Относительная влажность воздуха - влажноcть воздуха, измеренная на высоте 2 м над землей.
Te - Эффективная температура - температура, которую ощущает одетый по сезону человек в тени. Характеристика душности погоды. При расчете учитывается влияние влажности воздуха и скорости ветра на теплоощущения человека.
Tes - Эффективная температура на солнце - температура, которую ощущает человек, с поправкой на солнечный нагрев. Характеристика знойности погоды. Зависит от высоты солнца над горизонтом, облачности и скорости ветра. Ночью, в пасмурную погоду, а также при ветре 12 м/с и более поправка равна нулю.
P - Атмосферное давление - приведенное к уровню моря атмосферное давление.
Po - Атмосферное давление - измеренное на уровне метеостанции атмосферное давление.
Tmin - Минимальная температура - минимум температуры воздуха на высоте 2 м над землей.
Tmax - Максимальная температура - максимум температуры воздуха на высоте 2 м над землей.
R - Количество осадков - Количество выпавших осадков за период времени, мм. При наведении курсора мыши на число - период времени, за который выпало указанное количество осадков.
R24 - Количество осадков - Количество выпавших осадков за 24 часа, мм.
S - Снежный покров - Высота снежного покрова, см. При наведении курсора мыши на число - состояние снежного покрова и степень покрытия местности в баллах.